Location: Allisons_Woods
(35.8920°N, 81.8170°W)
Time: 17:09:01
(UTC-04:00)

Daily predictions for brighter satellites

Satellite Brightness Start Highest point End
(mag) Time Altitude Azimuth Time Altitude Azimuth Time Altitude Azimuth
Ariane Rocket 3.3 18:58:22 10° S 19:03:27 76° WSW 19:08:34 10° NNW
Meteor 1-11 4.4 18:58:55 10° N 19:04:42 84° W 19:10:23 10° S
Cosmos 1315 Rocket 3.3 19:02:07 10° N 19:05:58 39° ENE 19:09:50 10° SSE
Cosmos 921 Rocket 3.3 19:02:30 10° N 19:06:47 48° ENE 19:10:58 10° SSE
Cosmos 1743 Rocket 3.6 19:04:13 10° N 19:08:38 89° ENE 19:13:04 10° S
SKYMED 2 4.0 19:04:31 10° NNE 19:08:40 42° E 19:12:46 10° S
Cosmos 1727 Rocket 4.0 19:02:59 10° N 19:09:21 73° E 19:15:38 10° SSE
GP-B 3.1 19:07:18 10° N 19:11:45 75° E 19:16:10 10° S
Cosmos 1484 Rocket 3.0 19:08:40 10° S 19:12:22 71° W 19:16:04 10° NNW
SL-16 R/B 4.2 19:08:56 10° NW 19:13:58 34° WSW 19:19:00 10° SSW
Cosmos 1842 Rocket 4.0 19:10:33 10° SSW 19:14:58 68° W 19:19:25 10° N
Aureole 2 4.5 19:13:37 10° N 19:16:49 56° ENE 19:20:30 10° SSE
Cosmos 1626 2.9 19:15:29 10° NNW 19:19:09 58° W 19:22:49 10° S
BREEZE-M R/B 3.0 19:18:50 10° SSW 19:20:59 27° SE 19:23:15 12° ENE
Cosmos 1908 3.2 19:18:38 10° S 19:22:32 78° E 19:26:27 10° N
Cosmos 1703 3.5 19:19:00 10° N 19:22:55 75° W 19:26:48 10° S
Cosmos 2237 4.2 19:21:36 10° NNW 19:27:20 74° ENE 19:33:01 10° SSE
Cosmos 1269 Rocket 4.0 19:23:11 10° S 19:28:24 68° ESE 19:33:39 10° NNE
Cosmos 44 3.5 19:24:10 10° SW 19:28:29 61° WNW 19:32:47 10° NNE
MONITOR-E 4.3 19:25:36 10° SSE 19:28:35 50° ENE 19:31:35 10° N
Cosmos 1500 Rocket 3.9 19:24:26 10° NNW 19:28:44 70° W 19:33:01 10° S
Cosmos 2237 Rocket 3.7 19:25:46 10° NNE 19:29:25 17° NE 19:31:45 14° E
H-2A R/B 4.3 19:32:05 15° E 19:32:57 16° ENE 19:35:26 10° NNE
Cosmos 2227 Rocket 3.1 19:29:37 10° SSE 19:34:10 26° ESE 19:38:44 10° NE
Aureole 2 Rocket 3.5 19:32:08 10° N 19:35:41 31° ENE 19:39:20 10° SE
Molniya-1 2.9 19:34:41 10° S 19:35:55 30° SSE 19:35:55 30° SSE
RESURS DK-1 3.7 19:32:50 10° NW 19:36:46 44° WSW 19:40:40 10° S
Atlas Centaur 2 3.3 19:37:10 10° WSW 19:40:43 26° SSW 19:44:56 10° SE
Iridium 4 Rocket 3.7 19:35:32 10° S 19:41:02 66° E 19:46:51 10° N
SPOT 3 Rocket 3.5 19:36:00 10° SSE 19:41:10 71° ENE 19:46:22 10° N
Gbstr 26 Del rocket 4.0 19:37:52 10° NW 19:42:44 46° NE 19:47:06 17° ESE
Cosmos 1452 Rocket 4.2 19:37:56 10° NNW 19:43:06 59° WSW 19:48:15 10° S
Centaur D AC-28 4.1 19:41:33 10° S 19:44:37 18° SE 19:47:34 14° ESE
Cosmos 1300 3.0 19:43:04 10° SSE 19:46:40 41° E 19:50:16 10° NNE
Cosmos 494 Rocket 4.4 19:42:19 10° SSE 19:46:59 37° E 19:51:40 10° NE
Cosmos 2360 Rocket 3.5 19:44:30 10° NW 19:49:50 44° WSW 19:55:10 10° S
Sich 1 3.5 19:47:40 10° N 19:51:47 38° E 19:55:54 10° SSE
CZ-4C R/B 2.7 19:49:50 10° SW 19:54:51 57° NW 20:00:33 10° NNE
Cosmos 2098 Rocket 3.4 19:51:53 10° S 19:56:22 87° W 20:02:11 10° N
COSMO-SKYMED 1 3.5 19:52:29 10° N 19:56:41 49° WNW 20:00:52 10° SSW
FENGYUN 3A 3.6 19:54:23 10° SSE 19:59:45 74° ENE 20:05:10 10° N
COSMOS 2428 2.8 19:58:25 10° NNW 20:04:07 81° WSW 20:09:48 10° SSE
Cosmos 2219 3.9 19:59:13 10° SW 20:04:51 57° WNW 20:10:30 10° NNE
Cosmos 1535 Rocket 4.4 19:59:50 10° S 20:05:57 89° E 20:12:05 10° N
Cosmos 2333 Rocket 2.3 20:01:23 10° NNW 20:07:01 54° ENE 20:11:07 18° SE
Cosmos 1805 Rocket 3.6 20:03:30 10° N 20:07:55 84° W 20:12:19 10° S
Meteor 2-10 3.8 20:03:31 10° S 20:08:31 76° E 20:13:38 10° NNE
Hubble Space Telescope 2.3 20:05:56 10° SW 20:09:16 24° S 20:10:06 22° SSE
Cosmos 2228 Rocket 4.2 20:05:59 10° SSE 20:08:22 26° SE 20:08:22 26° SE
Cosmos 2297 Rocket 2.4 20:05:54 10° S 20:11:14 45° ESE 20:14:04 25° NE
PSLV R/B 3.2 20:08:41 10° W 20:11:46 59° NNW 20:12:00 57° N
Cosmos 1666 Rocket 3.3 20:13:00 10° N 20:17:20 76° E 20:21:38 10° S
Cosmos 1726 3.5 20:14:45 10° SSW 20:18:13 39° W 20:21:43 10° N
Cosmos 1328 Rocket 3.6 20:14:04 10° S 20:18:21 54° E 20:19:44 37° NE
Cosmos 2082 3.7 20:16:05 10° S 20:21:38 55° ESE 20:24:19 30° NE
Cosmos 1633 Rocket 2.9 20:17:36 10° N 20:22:01 70° E 20:24:47 22° SSE
Cosmos 2251 Rocket 3.5 20:17:18 10° S 20:22:29 60° ESE 20:25:26 26° NNE
DELTA 2 R/B (1) 4.4 20:25:18 10° WNW 20:30:36 45° SSW 20:33:03 28° SSE
FengYun 1-2 T 4.1 20:28:07 10° SSE 20:33:37 86° ENE 20:39:07 10° NNW
Cosmos 1934 Rocket 4.4 20:27:42 10° SSW 20:34:00 65° W 20:40:21 10° N
Meteor 2-2 Rocket 4.2 20:30:26 10° S 20:36:08 83° W 20:41:48 10° N
Cosmos 2219 Rocket 2.4 20:31:00 10° NNW 20:36:35 70° WSW 20:41:34 13° S
ALOS 3.7 20:34:06 10° SSW 20:38:27 38° W 20:42:49 10° NNW
OAO 1 Rocket 4.3 20:34:56 10° W 20:40:13 73° S 20:40:46 66° SE
Cosmos 2084 3.9 20:38:03 10° NNW 20:40:52 47° NW 20:40:52 47° NW
Delta 2 Rocket 4.3 20:38:49 10° W 20:41:39 36° SW 20:41:39 36° SW
Thor Agena Rocket 4.3 20:39:21 10° N 20:44:16 50° WNW 20:49:07 10° SSW
USA 267 3.2 20:48:33 57° ESE 20:49:08 59° SE 20:55:33 10° SSW
Cosmos 1331 Rocket 4.0 20:46:54 10° NNW 20:52:07 78° WSW 20:52:42 68° SSW
Meteor 1-27 4.1 20:48:45 10° S 20:54:27 83° E 21:00:16 10° N
BREEZE-M DEB (TANK) 3.7 20:52:57 10° NW 21:04:20 57° N 21:04:20 57° N
MOS 1-B Rocket 3.9 21:06:25 72° N 21:06:25 72° N 21:11:53 10° NNW
Cosmos 2237 Rocket 2.5 21:08:19 10° NNW 21:13:39 64° W 21:13:39 64° W
Cosmos 2227 Rocket 3.5 21:12:43 10° SW 21:17:57 38° WNW 21:21:11 21° N
SL-16 R/B 4.0 21:21:15 10° NNW 21:23:15 22° N 21:23:15 22° N
Cosmos 2297 Rocket 4.2 21:51:02 10° WSW 21:55:27 23° WNW 21:56:00 23° NW
